weather.gov     
National Weather Service

Regional Weather Roundup
NWS Homepage
This page is being discontinued on March 12, 2014.
The same data is available at this site. Please update your bookmarks.
Thank you, and we apologize for the inconvenience.
Please send an email to SR-SRH.Webmaster@noaa.gov with any concerns.


Current Version
Previous Version:    01  02  03  04  05  06  07  08  09  10  11  12  13  14  15  16  17  18  19  20  21  22  23  24  25  26  27  
[Printable]
419
ASUS44 KLZK 232305
RWRLZK

WEATHER ROUNDUP FOR ARKANSAS
NATIONAL WEATHER SERVICE LITTLE ROCK AR
600 PM CDT WED APR 23 2014

NOTE: "FAIR" INDICATES FEW OR NO CLOUDS BELOW 12,000 FEET WITH NO
SIGNIFICANT WEATHER AND/OR OBSTRUCTIONS TO VISIBILITY.

ARZ001-003-010-029-240000-
NORTHWEST ARKANSAS

CITY           SKY/WX    TMP DP  RH WIND       PRES   REMARKS
FAYETTEVILLE   SUNNY     76  50  40 S9G22     29.85F
FORT SMITH     MOSUNNY   83  53  35 SE14      29.81F
HARRISON       SUNNY     76  42  29 SE12G21   29.88F
BENTONVILLE    SUNNY     79  45  29 S9G18     29.86F
ROGERS         SUNNY     78  41  26 S17       29.85F
SILOAM SPGS    SUNNY     79  52  38 SE18      29.84F
HIGHFILL       SUNNY     78  48  34 S15       29.84F
SPRINGDALE     MOSUNNY   77  46  33 S12G23    29.87F
$$

ARZ004-005-016-240000-
NORTH CENTRAL ARKANSAS

CITY           SKY/WX    TMP DP  RH WIND       PRES   REMARKS
BATESVILLE     SUNNY     73  45  35 E12       29.93S
FLIPPIN        SUNNY     77  41  27 SE7       29.90S
MTN HOME       SUNNY     76  40  27 E9        29.89F
$$

ARZ040-041-240000-
WEST CENTRAL ARKANSAS

CITY           SKY/WX    TMP DP  RH WIND       PRES   REMARKS
MENA           MOSUNNY  N/A N/A N/A SE6       29.86F
MOUNT IDA      SUNNY     79  52  38 VRB5      29.86S
$$

ARZ009-017-025-026-028-240000-
NORTHEAST ARKANSAS

CITY           SKY/WX    TMP DP  RH WIND       PRES   REMARKS
CORNING        FAIR      73  37  27 E9        29.95F
JONESBORO      SUNNY     73  35  25 E8        29.94S
NEWPORT        SUNNY     73  43  34 E7        29.95S
WALNUT RIDGE   SUNNY     73  37  27 E10       29.94F
BLYTHEVILLE    SUNNY     72  39  30 E8        29.96S
$$

ARZ022-023-033-042-044-240000-
CENTRAL ARKANSAS

CITY           SKY/WX    TMP DP  RH WIND       PRES   REMARKS
LITTLE ROCK    MOSUNNY   77  43  29 SE10      29.91S
N LITTLE ROCK  MOSUNNY   76  46  33 S7        29.91S
JACKSONVILLE   SUNNY     78  48  34 E6        29.91S
SEARCY         SUNNY     76  45  33 E9        29.93F
HOT SPRINGS    SUNNY     81  49  32 S6        29.88F
RUSSELLVILLE   SUNNY     79  49  34 VRB6      29.87F
CLINTON        FAIR      75  46  35 S7        29.92S
$$

ARZ036-240000-
EAST ARKANSAS

CITY           SKY/WX    TMP DP  RH WIND       PRES   REMARKS
WEST MEMPHIS   SUNNY     76  37  24 E5        29.92F
$$

ARZ050-053-066-070-073-240000-
SOUTHWEST ARKANSAS

CITY           SKY/WX    TMP DP  RH WIND       PRES   REMARKS
ARKADELPHIA    FAIR      82  52  35 SE7       29.88S
CAMDEN         SUNNY     81  48  32 MISG      29.88S
TEXARKANA      MOSUNNY   81  56  42 S9        29.85F
EL DORADO      SUNNY     80  50  34 SE10      29.88F
DE QUEEN       SUNNY     81  58  45 SE7       29.82F
$$

ARZ056-057-069-240000-
SOUTHEAST ARKANSAS

CITY           SKY/WX    TMP DP  RH WIND       PRES   REMARKS
PINE BLUFF     SUNNY     76  48  37 E6        29.91F
STUTTGART      SUNNY     77  43  29 SE8       29.92F
MONTICELLO     SUNNY     78  45  30 E7        29.91S

$$






U.S. Dept. of Commerce
NOAA National Weather Service
1325 East West Highway
Silver Spring, MD 20910
E-mail: w-nws.webmaster@noaa.gov
Page last modified: May 16, 2007
NATIONAL WEATHER SERVICE: for Safety, for Work, for Fun - FOR LIFE